Flag for Belgium Weather past 2 weeks in Kortrijk, Belgium

Now
68 °F

Clear.


Feels Like: 68 °F
Forecast: 54 / 74 °F
Wind: 6 mph from East

Location: Lille Airport

Current Time: Aug 2, 2014 at 3:19:21 AM

Latest Report: Aug 2, 2014 at 2:44 AM


Visibility: 10 mi

Pressure: 29.68 "Hg

Humidity: 78%

Dew point: 61 °F

Location of KortrijkLocation

Historic Weather in Kortrijk — Graph

°F

Kortrijk temperature yesterday

Maximum temperature yesterday: 81 °F (at 6:00 PM)
Minimum temperature yesterday: 57 °F (at 3:30 AM)
Average temperature yesterday: 68 °F

Past Weeks' High & Low Weather Summary

 TemperatureHumidityPressure
High91 °F (Jul 18, 2:30 PM)100% (Jul 20, 6:00 AM)30.12 "Hg (Jul 20, 6:00 AM)
Low54 °F (Jul 31, 4:00 AM)35% (Jul 24, 5:00 PM)29.71 "Hg (Aug 2, 1:34 AM)
Average70 °F75%29.94 "Hg
* Reported Jul 18 1:00 AM — Aug 2 1:34 AM, Kortrijk, Weather by CustomWeather, © 2014

Note: Actual official high and low records may vary slightly from our data, if they occured in-between our weather recording intervals... More about our weather records

Advertising

Kortrijk weather history for previous 24 hours

 ConditionsComfort  
Time TempWeatherWind HumidityBarometerVisibility
1:34 AM
Aug 2
68 °FClear.7 mph78%29.71 "Hg10 mi
12:00 AM68 °FClear.7 mph78%29.74 "Hg10 mi
11:00 PM
Aug 1
70 °FClear.6 mph73%29.74 "Hg10 mi
10:30 PM72 °FSunny.6 mph65%29.74 "Hg10 mi
10:00 PM72 °FPassing clouds.6 mph61%29.74 "HgN/A
9:30 PM72 °FSunny.5 mph61%29.77 "Hg10 mi
9:00 PM73 °FSunny.6 mph57%29.74 "Hg10 mi
8:30 PM75 °FSunny.5 mph57%29.77 "Hg10 mi
8:00 PM77 °FSunny.5 mph51%29.77 "Hg10 mi
7:30 PM77 °FSunny.No wind51%29.77 "Hg10 mi
7:00 PM79 °FSunny.2 mph45%29.77 "Hg10 mi
6:30 PM79 °FPassing clouds.3 mph48%29.77 "HgN/A
6:00 PM81 °FSunny.3 mph45%29.77 "Hg10 mi
5:30 PM79 °FPassing clouds.5 mph48%29.77 "HgN/A
5:00 PM79 °FSunny.5 mph45%29.80 "Hg10 mi
4:30 PM79 °FPassing clouds.7 mph45%29.80 "HgN/A
3:30 PM77 °FBroken clouds.8 mph51%29.80 "HgN/A
3:00 PM77 °FScattered clouds.8 mph51%29.80 "HgN/A
2:30 PM77 °FScattered clouds.7 mph51%29.83 "HgN/A
2:00 PM75 °FScattered clouds.6 mph54%29.83 "HgN/A
1:30 PM75 °FScattered clouds.5 mph57%29.83 "HgN/A
1:00 PM73 °FScattered clouds.7 mph57%29.83 "HgN/A
12:30 PM73 °FScattered clouds.6 mph57%29.83 "HgN/A
12:00 PM72 °FPassing clouds.5 mph61%29.86 "HgN/A
11:30 AM70 °FPassing clouds.5 mph64%29.86 "HgN/A
11:00 AM68 °FSunny.3 mph69%29.86 "Hg10 mi
10:30 AM66 °FSunny.3 mph73%29.86 "Hg10 mi
10:00 AM66 °FSunny.3 mph78%29.86 "Hg10 mi
9:30 AM64 °FPassing clouds.5 mph78%29.86 "HgN/A
9:00 AM63 °FSunny.3 mph88%29.86 "Hg10 mi
8:30 AM61 °FSunny.1 mph88%29.86 "Hg10 mi
8:00 AM59 °FSunny.No wind94%29.89 "Hg10 mi
7:30 AM59 °FSunny.No wind88%29.89 "Hg10 mi
7:00 AM57 °FFog.No wind94%29.89 "Hg6 mi
6:30 AM57 °FFog.No wind94%29.89 "Hg6 mi
6:00 AM57 °FClear.No wind94%29.89 "Hg4 mi
5:00 AM57 °FPassing clouds.No wind94%29.89 "Hg5 mi
4:30 AM57 °FPassing clouds.No wind94%29.89 "HgN/A
4:00 AM57 °FPassing clouds.No wind94%29.92 "HgN/A
3:30 AM57 °FClear.2 mph94%29.92 "HgN/A
3:00 AM59 °FClear.No wind88%29.92 "HgN/A
Weather by CustomWeather, © 2014

See weather overviewHow to use our weather pages